User: anonymous   Login
Location: Ferintosh
(52.7647°N, 112.9692°W)
Time: 10:16:30
(UTC+00:00)
Language:

Altair - Orbit

View from above orbital plane
View from above orbital plane
View from above satellite
View from above satellite

Ground track
Ground track

The orbit data is extracted from the following two-line orbital elements,

1 00050U 60009B   24140.63306368 -.00000053  00000-0  29657-3 0  9997
2 00050  47.2347 356.1994 0113237 274.1945  84.5910 12.20140243845081
Epoch (UTC): 19 May 2024 15:11:36
Eccentricity: 0.0113237
inclination: 47.2347°
perigee height: 1501 km
apogee height: 1682 km
right ascension of ascending node: 356.1994°
argument of perigee: 274.1945°
revolutions per day: 12.20140243
mean anomaly at epoch: 84.5910°
orbit number at epoch: 84508

The dashed part of the orbit path shows where the satellite is in the earth's shadow,  

DLR